Home   Weather   Guangzhou   Past weeks

Flag for China Past Weather in Guangzhou, Guangdong, China — Yesterday and Last 2 Weeks

Now
88 °F

Passing clouds.


Feels Like: 96 °F
Forecast: 78 / 94 °F
Wind: 1 mph from Southeast

Location: Canton Airport

Current Time: Sep 25, 2016 at 8:27:26 PM

Latest Report: Sep 25, 2016 at 8:00 PM


Visibility: 4 mi

Pressure: 29.77 "Hg

Humidity: 62%

Dew Point: 73 °F

Location of GuangzhouLocation

Past Weather in Guangzhou — Graph

°F

Guangzhou Temperature Yesterday

Maximum temperature yesterday: 91 °F (at 1:00 PM)
Minimum temperature yesterday: 79 °F (at 3:00 AM)
Average temperature yesterday: 85 °F

High & Low Weather Summary for the Past Weeks

 TemperatureHumidityPressure
High95 °F (Sep 15, 12:30 PM)94% (Sep 10, 7:30 PM)30.01 "Hg (Sep 10, 7:30 PM)
Low75 °F (Sep 12, 12:00 AM)36% (Sep 19, 3:00 PM)29.59 "Hg (Sep 14, 3:30 PM)
Average84 °F63%29.80 "Hg
* Reported Sep 10 7:00 PM — Sep 25 7:00 PM, Guangzhou, Weather by CustomWeather, © 2016

Note: Actual official high and low records may vary slightly from our data, if they occured in-between our weather recording intervals... More about our weather records

Advertising

Guangzhou Weather History for the Previous 24 Hours

Scroll right to see more
 ConditionsComfort  
Time TempWeatherWind HumidityBarometerVisibility
7:00 PM
Sun, Sep 25
88 °FPassing clouds.1 mph52%29.77 "Hg4 mi
6:30 PM90 °FPassing clouds.1 mph55%29.77 "Hg4 mi
6:00 PM91 °FPassing clouds.1 mph52%29.74 "Hg4 mi
5:30 PM91 °FPassing clouds.6 mph49%29.74 "Hg4 mi
5:00 PM91 °FHaze.6 mph49%29.74 "Hg3 mi
4:30 PM93 °FHaze.8 mph47%29.74 "Hg3 mi
4:00 PM93 °FHaze.6 mph47%29.74 "Hg3 mi
3:30 PM93 °FHaze.3 mph47%29.74 "Hg3 mi
3:00 PM93 °FScattered clouds.3 mph47%29.74 "Hg3 mi
2:30 PM93 °FScattered clouds.6 mph49%29.77 "Hg3 mi
2:00 PM91 °FPartly sunny.1 mph52%29.77 "Hg3 mi
1:30 PM91 °FPartly sunny.1 mph56%29.80 "Hg3 mi
1:00 PM90 °FPartly sunny.1 mph55%29.80 "Hg3 mi
12:30 PM90 °FScattered clouds.1 mph55%29.83 "Hg3 mi
12:00 PM90 °FBroken clouds.1 mph55%29.83 "Hg3 mi
11:30 AM90 °FBroken clouds.1 mph59%29.86 "Hg3 mi
11:00 AM88 °FBroken clouds.1 mph62%29.86 "Hg3 mi
10:30 AM88 °FBroken clouds.3 mph62%29.86 "Hg3 mi
10:00 AM86 °FBroken clouds.3 mph66%29.89 "Hg3 mi
9:30 AM86 °FBroken clouds.1 mph66%29.89 "Hg3 mi
9:00 AM84 °FBroken clouds.1 mph70%29.89 "Hg3 mi
8:30 AM82 °FFog.1 mph74%29.86 "Hg2 mi
8:00 AM81 °FFog.1 mph79%29.86 "Hg2 mi
7:30 AM79 °FFog.1 mph84%29.86 "Hg2 mi
7:00 AM79 °FFog.6 mph84%29.83 "Hg2 mi
6:30 AM79 °FFog.1 mph84%29.83 "Hg2 mi
6:00 AM79 °FFog.No wind84%29.83 "Hg3 mi
5:30 AM79 °FPassing clouds.No wind84%29.80 "Hg4 mi
5:00 AM79 °FPassing clouds.1 mph84%29.80 "Hg4 mi
4:30 AM79 °FPassing clouds.1 mph84%29.80 "Hg4 mi
4:00 AM81 °FPassing clouds.1 mph79%29.80 "Hg4 mi
3:30 AM81 °FPassing clouds.1 mph79%29.80 "Hg4 mi
3:00 AM81 °FPassing clouds.1 mph79%29.80 "Hg4 mi
2:30 AM81 °FPassing clouds.1 mph79%29.80 "Hg5 mi
2:00 AM81 °FPassing clouds.1 mph79%29.80 "Hg5 mi
1:30 AM82 °FPassing clouds.No wind70%29.80 "Hg5 mi
1:00 AM82 °FPassing clouds.1 mph70%29.80 "Hg5 mi
12:30 AM82 °FPassing clouds.1 mph70%29.83 "Hg5 mi
12:00 AM82 °FPassing clouds.3 mph70%29.83 "Hg4 mi
11:30 PM
Sat, Sep 24
82 °FPassing clouds.1 mph70%29.83 "Hg4 mi
11:00 PM84 °FPassing clouds.1 mph66%29.83 "Hg4 mi
10:30 PM84 °FPassing clouds.1 mph70%29.83 "Hg4 mi
10:00 PM84 °FPassing clouds.1 mph70%29.83 "Hg4 mi
9:30 PM84 °FPassing clouds.3 mph70%29.83 "Hg4 mi
9:00 PM84 °FPassing clouds.3 mph70%29.83 "Hg4 mi
8:30 PM84 °FPassing clouds.3 mph70%29.80 "Hg4 mi
8:00 PM86 °FPassing clouds.3 mph62%29.80 "Hg4 mi
Weather by CustomWeather, © 2016

See weather overviewHow to use our weather pages